Time,TemperatureF,DewpointF,PressureIn,WindDirection,WindDirectionDegrees,WindSpeedMPH,WindSpeedGustMPH,Humidity,HourlyPrecipIn,Conditions,Clouds,dailyrainin,SoftwareType,DateUTC
2013-10-13 00:23:00,45.0,36.0,-100.00,West,270,0.0,-999.0,70,-99.99,,,-99.99,,2013-10-13 05:23:00,
2013-10-13 00:52:00,44.0,36.0,-100.00,WNW,293,0.0,-999.0,73,-99.99,,,-99.99,,2013-10-13 05:52:00,
2013-10-13 01:22:00,44.0,36.0,-100.00,WNW,293,0.0,-999.0,74,-99.99,,,-99.99,,2013-10-13 06:22:00,
2013-10-13 01:52:00,44.0,36.0,-100.00,WNW,293,0.0,-999.0,72,-99.99,,,-99.99,,2013-10-13 06:52:00,
2013-10-13 02:21:00,44.0,36.0,-100.00,WNW,293,0.0,-999.0,72,-99.99,,,-99.99,,2013-10-13 07:21:00,
2013-10-13 02:52:00,44.0,36.0,-100.00,North,0,0.0,-999.0,71,-99.99,,,-99.99,,2013-10-13 07:52:00,
2013-10-13 03:22:00,43.0,35.0,-100.00,West,270,0.0,-999.0,73,-99.99,,,-99.99,,2013-10-13 08:22:00,
2013-10-13 03:52:00,42.0,37.0,-100.00,WNW,293,0.0,-999.0,84,-99.99,,,-99.99,,2013-10-13 08:52:00,
2013-10-13 04:22:00,42.0,37.0,-100.00,WNW,293,0.0,-999.0,85,-99.99,,,-99.99,,2013-10-13 09:22:00,
2013-10-13 04:53:00,42.0,37.0,-100.00,WSW,248,1.0,-999.0,83,-99.99,,,-99.99,,2013-10-13 09:53:00,
2013-10-13 05:23:00,41.0,37.0,-100.00,WSW,248,0.0,-999.0,86,-99.99,,,-99.99,,2013-10-13 10:23:00,
2013-10-13 05:52:00,40.0,37.0,-100.00,NW,315,0.0,-999.0,89,-99.99,,,-99.99,,2013-10-13 10:52:00,
2013-10-13 06:22:00,42.0,36.0,-100.00,NW,315,0.0,-999.0,81,-99.99,,,-99.99,,2013-10-13 11:22:00,
2013-10-13 06:52:00,41.0,36.0,-100.00,NW,315,0.0,-999.0,80,-99.99,,,-99.99,,2013-10-13 11:52:00,
2013-10-13 07:21:00,41.0,36.0,-100.00,NE,45,0.0,-999.0,82,-99.99,,,-99.99,,2013-10-13 12:21:00,
2013-10-13 07:52:00,42.0,34.0,-100.00,ENE,68,0.0,-999.0,72,-99.99,,,-99.99,,2013-10-13 12:52:00,
2013-10-13 08:22:00,42.0,35.0,-100.00,ENE,68,0.0,-999.0,77,-99.99,,,-99.99,,2013-10-13 13:22:00,
2013-10-13 08:52:00,46.0,39.0,-100.00,NE,45,0.0,-999.0,76,-99.99,,,-99.99,,2013-10-13 13:52:00,
2013-10-13 09:21:00,50.0,38.0,-100.00,East,90,0.0,-999.0,63,-99.99,,,-99.99,,2013-10-13 14:21:00,
2013-10-13 13:22:00,71.0,37.0,-100.00,ESE,113,2.0,-999.0,29,-99.99,,,-99.99,,2013-10-13 18:22:00,
2013-10-13 13:52:00,71.0,35.0,-100.00,SE,135,3.0,-999.0,27,-99.99,,,-99.99,,2013-10-13 18:52:00,
2013-10-13 14:22:00,72.0,37.0,-100.00,SE,135,2.0,-999.0,28,-99.99,,,-99.99,,2013-10-13 19:22:00,
2013-10-13 14:52:00,74.0,40.0,-100.00,SE,135,2.0,-999.0,29,-99.99,,,-99.99,,2013-10-13 19:52:00,
2013-10-13 15:22:00,74.0,36.0,-100.00,ESE,113,3.0,-999.0,26,-99.99,,,-99.99,,2013-10-13 20:22:00,
2013-10-13 15:52:00,73.0,35.0,-100.00,ESE,113,3.0,-999.0,25,-99.99,,,-99.99,,2013-10-13 20:52:00,
2013-10-13 16:21:00,73.0,37.0,-100.00,ESE,113,2.0,-999.0,27,-99.99,,,-99.99,,2013-10-13 21:21:00,
2013-10-13 16:55:00,73.0,37.0,-100.00,ESE,113,3.0,-999.0,27,-99.99,,,-99.99,,2013-10-13 21:55:00,
2013-10-13 17:24:00,72.0,36.0,-100.00,ESE,113,2.0,-999.0,27,-99.99,,,-99.99,,2013-10-13 22:24:00,
2013-10-13 17:53:00,72.0,37.0,-100.00,East,90,3.0,-999.0,28,-99.99,,,-99.99,,2013-10-13 22:53:00,
2013-10-13 18:22:00,71.0,36.0,-100.00,ESE,113,2.0,-999.0,28,-99.99,,,-99.99,,2013-10-13 23:22:00,
2013-10-13 18:52:00,69.0,37.0,-100.00,East,90,2.0,-999.0,32,-99.99,,,-99.99,,2013-10-13 23:52:00,
2013-10-13 19:21:00,65.0,38.0,-100.00,East,90,2.0,-999.0,37,-99.99,,,-99.99,,2013-10-14 00:21:00,
2013-10-13 19:52:00,64.0,38.0,-100.00,East,90,2.0,-999.0,39,-99.99,,,-99.99,,2013-10-14 00:52:00,
2013-10-13 20:21:00,63.0,39.0,-100.00,East,90,2.0,-999.0,41,-99.99,,,-99.99,,2013-10-14 01:21:00,
2013-10-13 20:52:00,62.0,39.0,-100.00,East,90,2.0,-999.0,43,-99.99,,,-99.99,,2013-10-14 01:52:00,
2013-10-13 21:22:00,61.0,39.0,-100.00,East,90,2.0,-999.0,44,-99.99,,,-99.99,,2013-10-14 02:22:00,
2013-10-13 21:52:00,61.0,39.0,-100.00,East,90,2.0,-999.0,45,-99.99,,,-99.99,,2013-10-14 02:52:00,
2013-10-13 22:22:00,57.0,39.0,-100.00,East,90,2.0,-999.0,50,-99.99,,,-99.99,,2013-10-14 03:22:00,
2013-10-13 22:55:00,58.0,39.0,-100.00,ESE,113,1.0,-999.0,49,-99.99,,,-99.99,,2013-10-14 03:55:00,
2013-10-13 23:24:00,56.0,39.0,-100.00,ESE,113,1.0,-999.0,52,-99.99,,,-99.99,,2013-10-14 04:24:00,
2013-10-13 23:43:00,56.0,38.0,-100.00,ESE,113,2.0,-999.0,51,-99.99,,,-99.99,,2013-10-14 04:43:00,
2013-10-13 23:54:00,56.0,39.0,-100.00,ESE,113,2.0,-999.0,51,-99.99,,,-99.99,,2013-10-14 04:54:00,